カタログに戻る

GEESAT 1-01

運用中科学LEO
NORAD 52785·PAYLOAD·🇨🇳 China

打ち上げ Jun 2, 2022 から Xichang Satellite Launch Center

Loading…

次のパス (今後24時間)

TLE

最新Source: Space-Track

元期: Sep 14, 2026, 21:32 UTC

1 52785U 22058A   26257.89728393  .00001120  00000-0  16898-3 0  9994
2 52785  49.9933 148.0966 0021840 245.5940 114.2718 14.81590531233238

AllMySatでGEESAT 1-01をリアルタイム追跡

Download on the App Store